DMSP 5D-2 F13 DEB, 40681

Orbit data source: Space-Track

DMSP 5D-2 F13 DEB, 40681 is space debris in SSO originally from a launch on Fri, 24 Mar 1995 UTC launched from the Air Force Western Test Range (AFWTR). Debris objects in space refer to the collection of defunct objects orbiting the Earth. Examples of debris include non-operational satellites, rocket bodies, and fragments generated from explosions, collisions, or faulty payload assembly.

Loading next visibility...
Identifier
40681, 1995-015FV
Orbit
SSO
Country
Flag of USUS
Related business
Manufacturer
Unknown
Mission
Spacecraft
Bus & Motor
Unknown
Mass
Unknown
Launch date (UTC)
1995-03-24 (31 years ago)
Launch vehicle
Unknown
Launch site
Air Force Western Test Range (AFWTR)
Object type
Payload
Rocket body
Debris
Shape & HBR
Unknown shape, 0.1 m
Radar Cross Section
Small (<0.1 m²)

Expand to show TLE details & history
Last TLE update: 1 day ago

TLE from 1 day ago
0 DMSP 5D-2 F13 DEB
1 40681U 95015FV  25348.54329644  .00004145  00000-0  14454-2 0  9992
2 40681  98.7152  17.6091 0005012 238.5523 121.5173 14.35862202554202
Epoch: 2025-12-14T13:02Z
TLE epoch observation values (Epoch: 2025-12-14T13:02:20.812Z)
Latitude
0.00002°
Longitude
98.56768°
Altitude
777.014 km
Speed
7.465 km/s
True Right ascension
01h 10m 26s
True Declination
0° 00' 00"
Sunlit
Object was in daylight at epoch
Visualization orbit readout
Latitude
Unknown
Longitude
Unknown
Altitude
Unknown
Speed
Unknown
Apparent Right ascension
Unknown
Apparent Declination
Unknown
Sunlit
N/A
Visualization observer readout
Local Sidereal Time
13:02:42
Azimuth
Unknown
Elevation
Unknown
Doppler factor
Unknown
Orbital elements
Apogee altitude
772.923 km
Perigee altitude
765.758 km
Semi-major axis
7,147.477 km
Eccentricity
0.0005
Inclination
98.7152°
RAAN
17.6091°
Arg. of periapsis
238.5523°
True anomaly
121.56624°
Mean anomaly
121.5173°
Eccentric anomaly
121.54177°
Mean motion
3.59182 °/min
Orbital period
100.23 mins
BSTAR
0.0014454
Loading maneuver chart data...
Computing Atmospheric mass density...

Documentation

Showing up to 5 results
|